Theta_e
345 347 339 336 332 328 322 321 303 311 306 301 300 304 302 314 313 312 312 317 311 317 323 324 323 321 316 315 317 320 319 316 319 308 306 319 335 339 341 341 339 339 338 339 341 341 341 345 345 344 343 343 344 344 343 343 342 342 342 342 341 339 337 336 336 336 335 335 335 335 334 333 333 337 338 338 338 339 340 340 339 339 338 338 339 338 337 336 335 336 336 336 335 335 334 335 334
334 333 336 333 329 321 315 318 306 303 304 301 303 306 310 313 313 311 311 313 312 315 322 322 323 323 323 323 321 321 320 324 325 321 325 331 337 338 344 341 339 337 338 340 341 341 339 344 346 345 343 343 343 343 342 342 341 341 341 341 341 337 336 335 335 334 334 334 334 333 332 332 333 333 336 336 334 334 339 340 339 338 336 334 336 336 336 335 335 334 335 335 334 334 334 334 334
328 330 329 329 324 319 316 315 302 302 299 296 301 307 315 310 310 312 315 315 318 320 321 319 323 323 320 321 318 316 311 326 326 327 326 332 329 330 339 342 340 339 339 340 341 340 339 345 346 345 344 342 342 342 342 341 341 341 340 340 339 336 334 334 333 333 333 333 332 331 331 331 332 332 332 334 333 334 337 336 337 336 335 334 336 336 334 334 337 337 334 333 335 336 332 334 333
328 326 321 321 313 318 310 310 305 301 298 300 301 309 311 311 311 313 316 319 320 321 320 318 317 322 318 313 317 322 317 320 326 326 323 326 331 337 339 340 338 338 339 340 341 338 342 345 344 344 343 341 341 341 341 340 340 340 339 340 339 335 334 333 333 333 333 332 331 330 330 330 333 334 331 333 333 334 336 336 336 337 337 333 334 334 336 336 336 336 335 335 334 334 333 333 333
325 325 323 319 313 309 310 309 305 304 300 303 300 309 310 314 314 316 317 320 320 319 318 318 319 322 323 320 321 315 315 324 325 330 327 331 338 337 339 339 338 338 338 339 340 346 347 344 343 343 341 341 341 340 340 340 340 339 339 338 337 334 333 333 333 333 332 331 330 330 329 329 332 335 333 333 336 335 336 335 336 336 337 337 337 337 336 336 336 335 334 332 332 333 332 332 332
323 323 325 320 312 318 310 305 303 303 308 311 307 309 313 316 315 316 317 319 321 323 322 320 317 317 316 317 321 317 324 317 325 327 331 332 339 340 343 344 342 342 344 346 346 342 345 343 343 342 342 341 341 341 340 340 339 338 338 337 335 333 333 333 333 332 331 330 329 328 327 327 330 334 334 334 334 335 335 335 334 336 335 335 335 335 335 335 335 335 334 332 330 331 331 331 332
320 320 321 319 317 316 305 302 302 305 311 314 311 312 315 315 315 316 315 318 322 324 325 318 320 320 315 319 322 326 331 332 326 328 334 336 339 340 342 341 341 339 340 342 345 345 345 343 343 342 342 341 340 340 339 339 338 337 336 334 333 333 332 332 333 331 330 329 327 327 326 325 326 328 331 332 332 333 334 334 333 335 334 334 334 333 334 334 334 333 333 333 333 331 330 330 330
325 315 316 310 308 310 305 305 307 309 312 316 316 315 318 318 319 316 315 313 314 317 321 323 321 317 316 325 313 325 332 334 333 334 335 336 339 340 340 338 336 336 336 337 340 345 344 343 343 341 342 342 340 338 338 339 337 334 333 333 333 332 332 332 332 331 330 328 327 326 326 325 325 324 327 330 330 331 332 332 332 333 334 332 332 332 332 332 332 332 331 331 331 331 331 330 329
321 317 319 311 306 309 306 307 308 313 315 317 317 320 320 321 320 316 315 317 318 320 319 320 319 314 317 319 318 324 327 331 333 334 335 334 335 336 335 335 333 333 334 335 337 342 344 341 342 341 341 340 338 338 338 337 335 333 332 332 332 332 332 331 330 329 328 327 326 325 324 324 324 326 327 328 328 331 330 331 331 331 331 331 331 331 331 331 330 330 330 329 329 329 329 329 328
318 317 309 309 308 304 305 308 306 310 314 318 318 319 321 322 319 319 315 314 315 318 319 323 322 314 319 314 318 322 325 331 331 329 330 330 330 332 333 334 334 334 334 334 335 337 340 340 339 340 339 336 335 335 336 334 333 333 333 333 332 332 330 329 328 327 326 326 325 325 324 324 324 328 328 329 327 329 330 330 331 330 330 329 329 330 330 329 328 328 328 328 328 328 327 327 327
312 317 317 307 305 303 304 306 310 314 315 319 318 321 322 322 321 318 318 317 321 318 321 323 317 317 318 316 318 330 332 332 330 326 327 328 330 330 328 331 333 334 332 334 334 334 336 339 336 336 339 338 334 334 334 333 333 333 333 332 331 330 329 328 327 326 326 325 325 325 323 324 324 327 326 328 328 329 330 329 329 328 328 328 328 328 327 327 326 326 326 326 326 326 325 325 325
310 312 312 305 303 303 306 308 309 312 316 317 315 321 323 322 321 316 316 315 317 318 318 322 315 322 316 317 318 326 331 331 330 330 329 329 326 328 328 327 330 331 332 332 332 332 332 334 336 334 334 338 336 334 333 333 333 333 331 330 329 329 328 327 326 325 325 325 324 323 322 322 323 325 325 326 327 328 329 328 328 326 326 326 326 326 325 326 325 325 325 325 325 324 324 325 325
312 313 310 306 305 308 308 309 310 311 313 314 316 321 324 320 318 319 319 318 318 317 319 323 325 324 314 317 323 327 326 328 330 329 328 326 327 327 329 328 329 329 330 330 329 329 330 330 331 333 331 332 335 335 334 333 332 331 330 329 328 327 327 326 325 325 324 323 322 320 321 320 322 324 324 324 325 325 326 327 326 325 325 324 325 325 325 325 325 325 325 324 324 324 324 325 325
314 315 312 307 311 309 310 309 311 309 308 315 320 323 324 320 319 320 319 315 316 315 322 326 323 324 319 318 320 322 324 328 327 327 327 327 328 328 329 328 328 327 328 328 327 328 329 329 330 330 331 331 334 334 333 332 331 331 330 329 328 326 326 325 324 323 323 321 320 319 319 320 320 322 322 322 322 322 323 324 324 324 324 324 324 325 324 324 324 324 324 324 323 323 325 324 324
316 318 314 311 308 310 309 310 309 308 306 317 319 321 321 322 322 322 319 315 316 323 323 329 322 317 313 317 313 320 324 328 327 327 328 328 328 329 328 328 327 326 325 325 326 328 327 329 328 328 330 330 330 333 335 334 331 330 329 328 327 325 324 324 323 322 321 320 320 320 320 320 320 321 321 321 320 321 322 323 323 323 323 323 323 324 324 323 323 323 323 323 323 323 323 323 323
321 318 315 310 306 308 308 310 311 310 310 318 321 323 320 320 323 320 322 323 321 327 325 320 328 320 322 320 321 324 326 329 329 328 327 328 328 328 328 327 326 326 324 323 324 326 327 328 328 326 328 329 329 330 331 331 329 328 327 326 325 324 324 323 323 322 321 321 320 320 320 321 321 322 321 322 321 321 322 323 323 323 323 323 323 324 323 322 322 322 322 322 323 323 323 322 323
322 319 311 309 305 308 309 311 311 307 314 319 323 321 315 316 323 323 326 326 322 323 324 324 323 328 325 324 326 328 330 332 329 328 328 328 327 325 324 322 322 323 324 323 322 324 326 327 327 326 326 328 328 329 329 327 326 325 326 324 323 323 323 322 322 321 321 321 320 320 320 323 324 324 324 322 322 323 321 321 322 322 322 322 322 323 322 322 322 322 322 321 322 322 323 323 325
319 313 311 308 309 309 313 312 313 315 315 318 320 320 318 315 320 321 324 322 322 323 321 323 326 327 328 327 328 329 329 327 328 328 327 325 323 319 318 319 318 317 318 321 321 323 325 325 327 327 327 327 327 327 327 327 327 325 326 326 326 325 324 322 324 323 321 323 321 322 323 322 323 323 323 321 323 322 322 320 321 322 321 321 322 322 322 321 321 321 321 321 322 321 322 320 322
317 312 312 307 311 311 317 316 317 316 315 318 320 321 319 318 320 321 318 318 319 317 317 322 321 324 326 327 328 326 328 327 326 326 323 320 319 318 316 318 318 317 316 318 320 322 323 325 326 326 326 327 327 327 326 326 325 326 326 326 326 324 324 324 324 323 322 321 322 321 322 323 323 323 322 321 321 320 322 320 320 321 321 321 321 323 321 321 321 322 321 321 321 321 319 319 320
316 316 309 311 316 315 318 319 317 319 319 317 318 320 319 318 320 322 318 317 319 316 316 318 318 319 320 322 324 325 325 325 325 323 320 319 317 317 317 316 316 317 317 317 320 323 322 322 324 326 326 326 325 325 326 326 326 327 325 326 326 325 325 323 323 323 322 322 320 322 320 322 323 323 320 320 321 324 324 322 321 321 322 322 322 323 322 322 322 322 321 321 322 321 320 319 320
318 316 311 313 316 315 319 320 320 320 320 318 318 320 318 319 320 320 318 316 318 320 322 321 321 321 320 321 323 325 325 324 323 322 321 318 319 318 317 317 316 317 318 319 320 322 323 322 324 326 327 326 325 325 326 324 327 325 325 325 325 323 323 322 322 322 322 321 321 322 321 323 323 323 324 324 323 324 324 323 323 323 324 324 322 322 322 320 321 319 319 320 320 320 319 319 318
320 315 317 317 318 316 319 320 320 319 320 318 319 316 316 322 320 318 318 315 314 320 324 325 324 324 323 323 323 325 323 322 322 321 320 319 318 316 318 318 319 319 318 317 318 321 322 323 324 324 326 325 325 324 326 327 326 325 325 324 324 324 323 322 322 322 321 321 321 321 323 323 323 322 324 323 323 324 322 321 322 323 323 324 323 321 321 320 320 320 320 319 320 320 319 319 318
312 316 317 318 319 317 320 320 319 320 318 316 315 317 320 318 318 320 319 319 323 328 327 326 325 326 326 326 326 323 323 322 321 321 320 318 316 316 316 317 316 316 316 317 319 320 323 325 325 326 324 325 325 326 327 325 325 326 325 325 323 322 323 322 320 320 321 322 322 323 321 321 321 321 322 322 322 323 322 322 321 323 323 322 322 320 320 320 319 319 319 320 320 319 318 319 318
316 312 317 317 319 317 320 318 320 319 318 317 319 320 316 316 315 321 320 323 325 326 327 326 327 327 327 325 324 323 322 322 321 322 321 319 318 316 317 316 317 318 317 318 318 320 323 324 325 326 326 325 326 326 326 324 325 325 325 325 324 322 321 321 320 320 321 320 321 322 322 322 321 320 322 321 321 323 323 323 323 322 321 321 321 320 318 319 319 319 319 319 318 318 317 317 317
315 315 318 318 318 319 320 320 319 319 318 321 320 318 317 317 317 319 318 322 324 326 327 327 327 326 325 324 323 323 322 322 322 322 321 320 320 319 318 317 318 318 317 318 318 319 322 325 325 324 326 326 326 326 325 325 325 325 324 323 323 322 322 321 320 321 321 320 321 322 323 322 321 321 321 321 322 322 323 323 321 321 321 320 320 319 319 318 318 318 318 318 318 317 317 316 316
318 317 318 318 318 319 319 319 319 319 319 320 316 316 318 319 320 317 320 322 325 327 326 326 326 324 324 324 324 323 323 322 322 322 321 321 321 320 318 316 316 316 317 318 319 319 321 324 324 324 325 326 326 326 326 325 324 323 324 324 323 323 321 322 321 319 320 319 320 321 321 322 321 320 321 322 321 322 321 322 322 321 318 319 319 319 319 319 318 318 318 317 316 316 316 316 315
320 318 319 318 318 318 319 317 317 319 318 319 315 316 316 320 319 311 321 324 326 325 324 326 324 323 324 324 324 324 323 322 322 323 322 321 321 320 319 318 316 316 319 318 319 318 321 324 324 323 324 327 326 325 325 325 325 324 324 323 323 322 321 321 320 320 320 320 321 322 321 322 321 321 322 322 321 321 321 321 321 320 319 318 319 318 319 319 319 318 317 317 316 316 315 316 315
318 318 319 318 318 319 318 318 316 318 317 319 318 315 317 317 317 313 319 325 326 324 323 324 323 322 323 324 323 324 324 323 322 324 322 319 319 319 318 317 317 317 316 318 319 320 321 323 323 324 324 326 325 324 325 324 324 324 324 324 321 321 322 320 318 319 320 320 321 321 322 322 322 321 323 322 322 321 320 320 319 320 318 318 319 319 318 318 318 318 318 318 318 317 316 315 315
317 317 313 315 317 316 317 315 316 317 315 319 319 314 311 313 312 318 323 326 325 323 323 324 323 322 323 324 323 323 323 323 323 322 322 320 321 321 320 320 317 316 318 319 319 321 321 323 323 323 323 325 324 324 324 324 324 323 323 323 322 320 321 320 318 319 320 321 322 321 322 322 322 321 322 323 323 320 321 319 319 319 319 319 319 318 319 319 319 318 318 318 317 317 316 315 315
319 318 314 312 312 310 315 317 317 315 315 318 314 302 306 311 316 320 323 324 323 322 321 322 322 323 323 323 323 324 324 323 322 322 322 321 321 321 320 321 321 317 317 318 320 320 321 323 323 324 323 324 325 324 324 323 324 324 324 322 322 321 319 318 319 321 320 320 322 321 320 321 320 321 322 322 323 321 321 319 318 317 318 319 319 318 317 318 317 317 317 317 316 315 314 315 314
313 314 317 310 308 305 313 317 315 313 316 317 317 303 305 311 317 321 322 324 322 319 320 322 322 323 323 323 323 324 325 324 324 323 323 322 321 321 321 321 320 318 318 320 319 320 321 323 323 323 323 324 323 323 322 323 323 323 322 321 321 321 319 318 319 320 319 320 321 319 320 321 321 321 322 322 322 321 319 318 317 317 318 319 318 318 318 318 318 317 317 316 316 315 314 314 314
313 310 304 309 305 306 312 316 315 312 314 316 314 303 305 309 314 321 321 323 322 319 319 321 322 322 323 323 323 323 324 324 324 324 324 323 321 320 321 321 320 319 319 319 320 321 321 322 323 323 323 323 323 323 322 323 323 323 322 319 320 320 318 319 319 319 320 319 319 320 320 321 321 322 323 322 321 320 318 317 317 317 318 318 317 318 319 317 317 317 318 317 314 313 314 313 315
311 308 304 305 307 305 308 312 315 315 313 315 311 305 308 308 315 319 320 321 320 319 319 321 322 323 323 322 323 324 324 324 323 323 322 323 322 321 321 320 319 320 320 320 319 321 321 322 323 322 321 321 322 321 322 323 323 322 322 320 319 319 318 318 318 320 320 320 318 318 320 321 322 322 322 322 322 320 318 317 316 317 318 317 317 317 317 317 316 316 318 318 316 314 313 313 314
305 310 305 308 305 308 305 310 314 314 315 311 312 310 309 311 314 317 319 321 320 318 318 320 321 322 322 323 323 323 324 324 323 322 323 323 322 321 323 320 321 321 321 320 320 320 321 322 323 322 322 321 322 322 323 323 322 321 319 319 320 318 318 319 319 319 320 318 318 318 320 322 322 322 322 321 320 319 318 317 317 318 318 318 317 317 317 317 317 318 316 317 317 315 314 314 314
304 305 305 304 307 307 306 309 311 314 313 311 310 309 308 311 313 315 317 319 319 318 318 319 320 321 322 322 323 323 323 324 324 324 324 324 322 322 321 322 321 321 321 320 320 321 322 322 323 322 322 322 322 323 323 323 323 322 319 319 319 319 320 318 319 318 318 319 318 319 321 322 321 322 321 321 320 318 318 318 317 318 318 316 316 316 316 316 317 317 316 315 316 315 314 314 314
306 308 306 307 305 306 306 308 313 314 311 311 309 308 308 310 312 315 317 318 318 318 320 320 320 321 322 323 323 323 324 324 326 325 325 323 323 322 320 320 321 321 321 321 320 321 321 322 322 322 322 323 323 323 323 321 320 317 316 318 317 317 318 317 319 318 319 317 319 320 321 322 321 321 320 321 320 319 318 317 317 317 317 316 315 315 314 315 315 316 315 315 314 314 315 315 315
309 309 308 306 306 305 308 310 313 315 313 310 310 309 309 310 311 314 315 318 318 318 318 319 320 320 320 321 322 323 324 324 327 324 324 323 323 322 321 320 321 321 321 320 319 320 321 320 320 319 322 322 321 320 319 317 316 317 318 317 316 317 317 318 318 319 319 318 319 320 321 320 321 320 320 320 319 319 319 318 318 317 316 316 315 315 315 315 316 316 315 316 315 313 313 315 315
310 309 309 307 308 305 308 309 312 315 313 309 311 309 310 311 312 314 316 316 316 316 317 318 319 320 321 321 322 322 325 328 326 324 324 323 322 322 321 321 322 321 320 320 320 319 321 321 320 320 320 321 320 320 319 318 318 317 316 315 315 314 316 315 316 318 319 319 321 321 321 321 321 319 319 320 320 319 319 317 318 317 316 316 315 314 315 316 316 315 316 314 315 313 313 314 314
310 309 308 307 307 308 310 311 312 314 313 309 309 309 309 311 313 314 315 315 317 318 318 318 320 320 320 320 322 323 325 326 326 325 323 322 322 321 321 322 322 321 320 320 319 319 320 320 320 320 320 321 320 320 319 318 319 319 318 316 317 315 317 319 317 318 319 319 321 321 321 321 319 318 318 319 319 319 319 318 317 317 317 316 314 314 315 315 315 314 315 313 312 314 314 314 314
310 309 308 304 307 308 305 309 312 313 312 309 309 309 308 311 313 314 315 315 316 318 319 319 321 320 320 321 321 323 323 324 325 326 324 323 322 321 321 321 321 321 321 320 318 318 319 319 320 320 320 320 319 318 319 320 319 319 319 318 317 318 317 318 319 319 318 319 320 321 320 320 319 318 317 317 318 319 319 318 318 317 316 316 315 314 314 313 314 313 313 313 313 311 311 312 314
309 308 308 307 307 306 307 307 311 312 313 312 311 310 307 309 310 311 315 317 316 317 318 319 321 321 322 324 323 324 324 325 325 327 326 325 323 322 322 322 322 321 320 319 318 317 318 318 319 319 319 319 319 318 319 320 319 318 319 318 319 318 318 317 317 315 317 317 320 320 319 319 318 318 318 317 318 318 319 319 318 318 317 316 315 314 313 313 313 314 314 313 313 311 309 310 312
308 308 309 308 308 307 308 309 310 309 308 309 308 299 299 307 307 309 312 314 315 317 317 317 319 320 321 322 323 325 326 326 326 327 327 326 325 324 323 322 321 321 320 319 319 318 318 319 320 319 319 318 318 318 319 318 317 316 316 316 314 314 313 314 313 313 314 314 316 320 320 319 318 318 317 317 318 318 319 319 320 318 318 316 316 314 314 314 313 313 314 314 313 314 312 309 308
306 305 311 311 309 309 308 307 309 301 300 305 311 303 295 306 305 308 310 311 312 315 316 316 317 319 320 320 321 324 324 325 328 328 328 327 326 324 323 322 322 321 320 320 319 318 318 318 319 319 319 319 318 319 319 319 317 317 317 316 315 314 313 314 316 316 315 316 319 319 319 320 318 317 318 317 318 319 319 319 319 319 318 317 317 316 315 314 313 314 314 314 313 312 312 308 308
304 311 311 311 309 309 308 308 308 305 307 309 310 307 301 300 304 310 311 311 311 312 314 316 316 317 319 320 321 323 325 326 326 328 329 329 327 326 323 323 322 322 320 320 319 318 318 317 318 318 319 318 318 320 318 319 317 316 317 316 315 314 313 313 315 316 317 318 319 320 320 318 318 317 316 316 317 318 319 319 319 319 317 317 316 316 315 315 315 315 315 315 314 313 313 310 309
307 312 312 309 310 310 310 310 308 308 308 303 306 308 303 299 304 310 311 309 309 310 312 314 315 317 318 319 320 322 324 325 326 325 328 329 328 326 325 323 323 322 320 319 319 318 316 317 317 318 317 318 318 318 318 317 318 317 317 316 314 315 315 315 316 316 315 317 318 318 319 317 317 318 317 317 317 317 318 318 319 319 318 318 317 317 317 315 315 314 314 314 314 314 314 312 311
312 313 313 312 311 311 310 309 308 307 306 298 303 305 300 298 305 308 310 309 309 311 312 314 316 316 317 318 320 322 324 326 325 324 327 330 329 327 326 324 323 321 321 320 319 318 316 317 317 317 316 317 318 318 318 317 317 317 316 315 314 314 316 315 315 314 314 316 317 318 319 318 317 317 318 317 318 317 318 319 319 319 320 318 318 317 317 317 315 315 315 316 316 315 315 314 312
314 313 311 310 310 309 310 309 307 306 295 301 303 306 302 296 303 306 307 307 309 312 314 315 316 318 318 320 320 322 322 323 322 323 327 330 329 327 325 323 322 322 321 319 319 318 316 316 317 316 316 317 317 317 317 316 317 317 316 314 314 314 313 314 314 314 313 314 316 318 318 318 318 317 318 318 317 317 319 320 320 320 321 321 319 317 317 316 316 317 317 317 316 316 314 314 314
313 312 310 307 306 308 308 306 308 297 294 301 306 305 304 296 301 308 311 312 313 312 312 315 315 316 318 321 320 321 322 321 321 323 326 327 327 326 324 323 322 321 320 319 319 317 315 314 316 316 316 316 317 317 317 316 316 316 316 315 314 314 313 312 312 312 312 312 315 316 317 317 318 318 318 317 317 318 319 319 321 321 320 320 319 320 319 318 318 317 317 316 316 316 316 315 315
312 311 309 303 298 299 294 301 293 295 295 302 305 306 304 300 305 308 310 312 313 315 314 315 315 316 319 320 321 322 322 320 321 324 327 326 325 324 323 322 322 321 320 319 318 317 315 315 316 316 315 316 316 316 316 316 315 315 315 314 315 315 314 313 312 312 313 313 315 316 316 315 316 316 316 316 316 318 318 319 320 319 320 320 320 319 320 319 318 318 317 317 316 316 315 315 314
308 305 304 300 295 293 289 295 299 299 302 304 306 305 303 305 307 311 311 313 315 316 317 318 318 319 320 320 322 322 323 322 321 326 327 327 326 324 323 323 322 321 321 319 318 318 316 316 316 316 314 316 316 316 316 315 315 315 315 315 315 315 314 314 313 313 314 314 315 315 315 315 315 317 316 316 316 317 318 319 320 321 320 320 319 319 320 320 320 318 318 317 317 316 316 316 315
306 309 306 303 300 296 289 294 290 293 297 301 304 303 298 299 301 312 312 315 315 317 318 320 321 322 324 322 322 323 324 325 326 327 326 327 326 325 324 323 322 322 321 319 318 317 316 316 316 316 314 315 316 315 316 315 315 315 315 315 316 316 314 313 313 314 314 314 315 316 316 315 315 316 316 317 317 318 318 319 320 320 320 320 319 319 319 320 320 318 318 317 317 317 317 316 315
309 311 310 305 300 306 296 299 299 298 299 297 300 298 305 303 310 312 315 315 316 317 317 320 319 320 322 322 322 324 325 326 326 327 327 328 328 326 324 323 323 322 321 320 319 318 317 317 317 316 315 315 315 314 315 316 315 315 314 314 315 315 315 314 314 314 314 315 315 315 316 316 316 315 318 317 317 317 318 318 320 320 320 320 319 318 319 319 319 318 317 317 317 317 316 316 315
305 308 302 303 309 307 300 301 305 301 299 293 300 302 305 309 309 313 313 314 314 315 316 317 318 320 323 323 324 324 324 326 326 327 327 328 327 326 325 324 323 322 321 320 320 319 318 316 316 316 315 314 314 315 315 315 316 315 314 315 315 314 314 313 313 313 314 315 316 316 315 315 317 317 317 317 317 318 318 318 319 319 320 320 319 318 318 319 319 318 317 317 316 316 316 315 315
309 303 304 310 311 308 302 295 296 295 292 292 302 298 299 300 296 310 310 312 312 313 314 316 320 322 321 324 325 324 325 326 327 328 329 328 327 326 325 324 323 322 322 321 320 319 319 318 317 316 315 313 314 314 315 316 315 314 314 314 314 314 313 313 313 312 313 314 315 316 317 316 315 316 316 317 317 317 317 318 318 319 320 319 319 319 318 318 319 317 318 317 317 316 316 316 315
308 305 311 305 298 299 305 298 289 290 288 292 298 301 299 302 301 307 307 309 311 313 314 316 317 318 320 323 325 326 328 328 327 327 327 327 326 325 324 324 322 322 322 321 319 318 318 318 317 317 315 315 314 314 314 314 315 313 313 314 314 313 314 314 313 314 314 312 312 314 315 315 316 316 315 316 316 316 317 317 318 318 319 319 319 318 318 318 318 317 317 316 316 316 315 314 315
312 312 309 310 308 302 301 299 301 300 290 291 293 299 296 304 304 307 307 310 311 312 313 314 315 317 319 321 322 325 327 328 326 327 327 326 326 326 324 323 321 321 320 320 318 317 317 317 317 317 315 314 314 314 314 314 313 314 313 314 314 313 313 313 313 313 313 312 312 313 314 315 315 315 315 315 315 315 315 316 316 317 317 318 318 317 317 317 317 317 317 316 316 316 315 314 315
306 307 305 307 306 307 306 306 300 297 291 292 291 290 300 305 308 308 308 311 312 313 313 315 316 318 320 322 324 325 327 328 327 327 326 326 326 325 324 324 321 321 319 319 317 317 315 315 316 315 315 313 313 313 314 314 314 314 313 313 313 314 313 313 313 313 313 312 313 314 315 315 315 314 314 314 314 315 315 316 316 316 316 317 317 317 317 317 316 316 316 316 316 315 314 314 315
306 305 303 304 303 300 296 293 304 301 298 291 292 289 303 306 311 311 311 313 313 313 315 316 316 318 322 324 327 328 327 330 330 328 328 326 326 324 323 322 321 319 318 317 316 316 314 314 314 314 313 311 312 311 313 313 314 314 313 313 313 314 313 313 313 312 312 312 313 314 315 315 315 314 314 313 313 315 315 315 315 315 315 315 315 316 316 316 314 315 315 316 316 315 314 314 314
Wind_Speed
7 7 4 5 5 5 5 5 8 5 3 4 8 4 3 3 3 6 7 6 4 3 4 4 2 3 5 2 3 5 4 3 3 4 3 2 1 5 5 4 4 4 5 5 4 4 5 9 9 8 7 7 7 7 7 7 8 8 9 9 10 10 12 12 12 12 13 13 14 15 15 16 15 13 13 9 9 9 9 11 11 12 12 12 12 15 13 13 13 12 11 12 13 13 13 12 11
4 3 5 5 5 5 4 3 6 4 5 6 1 4 5 3 6 6 7 6 8 3 3 2 2 2 2 4 6 6 8 8 9 8 4 2 4 7 8 6 6 6 5 5 4 4 5 8 10 8 7 7 7 8 8 8 8 8 9 9 9 10 10 10 11 11 12 13 14 14 15 16 14 13 12 12 11 9 7 10 12 11 11 12 12 12 13 13 14 13 11 12 14 12 13 13 11
2 5 6 6 7 6 5 4 8 5 7 5 5 7 3 6 7 5 4 6 5 3 3 1 2 2 3 3 4 2 3 9 10 10 7 4 5 6 9 5 5 6 6 4 4 5 5 9 11 10 8 8 8 8 9 9 8 8 8 9 9 10 10 10 10 11 11 12 13 14 15 16 15 12 11 11 11 12 11 11 11 13 14 15 15 14 14 14 14 17 13 13 15 20 9 14 14
2 2 6 4 6 4 6 4 5 7 7 6 5 3 9 10 8 6 10 7 5 4 2 1 0 1 2 5 6 5 4 7 5 4 6 5 4 5 5 3 5 5 5 4 4 5 7 10 11 9 8 9 9 9 9 9 9 8 7 8 9 9 9 10 10 11 12 12 12 13 14 14 13 15 11 11 11 11 12 13 13 15 17 14 14 14 12 13 14 14 15 16 15 17 17 14 16
4 1 4 6 6 5 4 4 6 6 5 4 7 9 8 7 8 8 5 5 6 5 2 1 2 3 3 4 1 2 7 9 9 7 5 5 3 1 2 2 5 6 6 6 6 6 8 12 11 9 8 9 9 10 10 9 9 8 6 7 9 10 10 10 10 11 11 11 12 12 14 14 13 14 14 11 13 11 13 13 14 15 15 14 16 16 12 13 12 15 14 12 14 15 15 16 17
4 4 2 6 5 5 5 5 4 4 5 5 7 7 4 4 5 5 4 5 5 5 5 1 1 5 3 5 2 3 3 4 5 6 4 6 5 4 4 5 7 7 6 5 5 8 8 10 9 9 9 9 9 9 9 8 8 9 10 12 11 10 10 10 10 10 11 11 12 13 14 13 13 13 12 12 12 12 12 12 12 13 14 13 12 12 12 13 14 14 16 14 12 13 14 15 17
4 4 5 5 4 4 5 6 4 4 5 5 6 5 6 6 4 2 5 4 3 8 3 5 3 2 6 5 7 6 7 2 5 5 6 2 6 6 6 6 7 9 8 7 6 8 11 9 8 8 9 9 8 7 6 7 8 9 10 10 10 10 10 10 10 10 11 12 13 13 14 13 13 13 13 12 12 12 12 11 12 13 13 12 13 12 13 14 14 14 14 15 16 16 15 14 15
3 7 1 6 4 3 5 4 1 5 6 6 4 4 6 6 5 5 4 2 2 4 4 6 4 8 8 2 6 7 11 11 11 10 8 7 8 8 8 7 8 9 9 8 7 7 10 12 10 8 7 7 6 7 8 8 9 10 10 10 10 10 10 10 10 11 11 12 13 14 14 14 13 13 12 12 12 12 12 11 12 13 13 13 12 14 13 14 14 15 15 15 15 15 17 18 17
4 7 1 6 7 2 5 4 4 4 5 5 6 4 2 6 4 5 5 6 6 5 4 5 3 3 5 11 9 7 9 12 11 12 11 10 10 9 8 10 9 8 8 7 7 6 8 12 12 11 9 8 8 10 10 10 10 10 10 10 10 10 10 10 10 11 12 13 13 14 14 14 13 12 12 12 11 11 11 11 11 12 13 14 13 13 13 13 14 15 15 15 15 15 15 15 16
4 5 3 5 4 6 4 1 1 4 5 6 5 6 6 5 5 5 6 7 6 4 6 11 9 10 3 10 8 7 5 12 11 12 10 10 11 10 11 10 9 9 8 7 6 7 6 9 12 11 10 8 9 9 9 9 10 10 11 11 11 11 11 11 11 12 12 13 13 13 14 13 12 11 11 11 10 10 10 10 11 13 14 14 14 13 13 14 14 15 15 15 15 15 15 15 16
5 4 3 6 5 6 4 3 4 6 5 5 7 5 5 4 5 6 5 7 5 7 6 7 12 10 8 8 7 5 11 11 12 11 9 10 10 10 10 9 8 8 8 8 7 6 6 7 11 12 12 12 10 10 9 9 10 11 11 11 10 11 11 11 11 11 12 12 13 13 13 12 11 11 10 10 8 10 10 10 11 12 13 14 14 14 14 15 15 15 15 15 15 15 16 16 16
7 4 3 5 4 5 3 3 4 5 6 4 7 5 4 3 2 7 7 7 8 8 9 3 6 5 10 7 5 9 11 11 11 9 8 8 9 9 8 7 8 8 8 7 7 6 5 5 6 9 11 12 11 10 9 10 11 11 10 11 11 11 11 11 11 11 12 12 12 12 12 11 10 10 10 10 10 10 11 10 11 12 13 13 14 14 14 14 15 15 14 15 15 16 16 16 16
7 2 5 5 3 4 3 1 5 4 5 5 5 6 3 4 7 7 6 6 7 9 10 9 4 1 6 6 6 10 11 9 8 7 7 7 7 6 7 7 8 9 8 7 7 6 6 5 6 6 7 8 11 11 10 11 11 11 11 11 11 11 11 10 10 11 11 11 11 11 10 10 10 10 10 10 10 11 11 11 11 12 13 13 13 13 13 14 14 14 14 14 15 15 16 16 16
6 3 4 3 2 1 2 4 4 4 5 8 6 4 4 5 5 4 4 9 8 9 7 7 7 11 12 6 5 7 8 7 8 7 6 7 6 6 7 6 8 8 8 8 7 7 6 6 6 5 5 5 4 7 11 10 10 11 11 10 10 10 10 10 10 10 11 11 11 11 10 9 9 9 9 9 10 10 11 12 11 12 12 13 13 13 13 13 14 14 14 15 15 16 16 16 16
5 0 3 2 1 1 2 2 3 4 5 4 5 4 6 6 6 7 6 8 9 5 5 6 6 1 6 7 5 6 7 7 7 6 6 6 6 6 6 6 7 7 8 8 7 6 6 5 5 5 5 4 4 4 4 8 10 10 10 11 10 10 9 9 9 10 10 11 10 10 9 8 8 7 10 8 10 10 10 11 12 11 12 12 13 13 13 13 13 14 14 14 15 16 16 17 17
2 4 3 1 0 2 4 1 1 2 8 6 6 5 8 6 4 7 7 7 7 8 3 9 10 8 11 12 10 10 8 7 6 5 4 4 4 4 4 4 5 6 6 7 6 6 5 6 4 5 5 5 5 4 5 5 8 10 10 10 10 9 9 9 9 9 8 9 10 10 8 8 7 6 8 8 8 8 9 10 11 11 12 12 12 12 12 12 12 13 13 14 16 17 17 17 16
2 4 3 2 2 1 4 1 1 5 9 8 7 5 7 7 7 7 5 8 11 11 12 10 10 10 12 8 8 8 7 5 4 3 2 1 1 2 2 3 3 4 3 6 6 5 5 6 5 4 5 5 4 4 4 5 5 4 7 8 7 8 8 7 9 8 9 7 9 8 7 6 6 6 6 8 8 7 7 10 10 11 11 11 12 12 12 11 11 13 14 15 16 15 15 18 20
4 4 3 3 3 5 5 5 6 7 8 8 6 4 9 8 8 8 8 10 12 12 13 11 11 11 10 9 7 7 5 5 3 2 4 4 3 4 3 4 4 4 4 4 6 5 4 4 5 4 4 5 3 3 2 2 3 4 5 5 6 6 7 8 7 8 8 8 8 6 6 6 6 5 6 8 6 7 6 9 10 10 10 10 11 13 12 11 12 13 14 15 16 15 17 11 10
4 1 2 4 5 7 4 7 7 4 8 8 8 4 6 9 7 5 6 10 10 11 10 10 11 10 10 9 8 9 8 7 4 4 5 5 4 4 4 4 4 5 5 4 5 6 3 3 4 4 4 3 2 3 2 2 3 3 4 4 3 5 6 7 7 7 8 8 7 7 5 6 6 5 6 6 7 7 6 7 8 9 9 10 9 14 12 12 10 14 15 15 14 15 12 10 10
3 3 4 7 7 9 8 6 7 8 8 8 8 7 6 8 5 7 9 11 11 10 8 10 10 10 10 9 9 8 8 6 5 4 5 6 6 5 5 5 4 4 4 4 4 4 4 3 3 4 3 4 3 3 2 3 3 2 4 4 5 5 6 6 6 6 7 8 7 6 6 7 6 5 5 5 7 5 6 7 8 9 9 10 11 12 12 11 14 14 14 16 13 10 10 10 10
3 1 6 8 8 8 8 8 8 7 6 8 8 8 8 6 6 6 11 11 10 8 7 8 10 11 10 9 8 7 7 6 5 5 6 7 6 5 5 5 5 4 3 2 3 4 5 5 2 3 3 3 3 2 2 4 3 3 4 4 5 5 6 6 5 6 6 8 8 6 7 6 6 5 6 6 6 6 7 7 8 7 8 9 12 10 9 10 11 12 12 12 11 10 10 10 9
7 11 10 8 8 10 9 9 7 7 7 8 8 8 9 7 7 7 4 8 8 7 7 8 10 11 11 9 8 6 6 6 5 5 7 7 7 6 4 3 3 2 3 4 4 4 5 6 5 3 3 4 4 3 3 2 2 4 4 5 4 5 5 5 5 5 6 7 7 7 6 6 6 6 6 7 7 7 7 8 8 8 8 9 10 10 10 11 11 11 11 11 10 10 11 10 10
8 8 9 8 9 10 7 8 6 4 7 8 8 9 8 8 9 7 10 10 9 7 8 9 9 9 9 8 7 6 6 6 6 6 7 7 7 6 5 4 4 4 4 4 4 4 5 6 6 5 4 2 4 3 2 3 3 3 4 4 5 6 5 5 5 5 5 6 7 6 7 6 6 6 7 7 7 7 8 8 8 8 9 9 9 10 11 11 11 11 11 11 10 10 11 10 10
8 9 9 11 10 10 8 8 5 6 7 9 8 8 10 9 10 7 11 9 8 8 7 8 9 9 8 7 6 6 6 5 5 5 4 6 6 6 4 4 4 4 5 4 4 4 5 6 6 5 4 4 2 2 2 2 3 3 4 4 5 5 5 5 5 5 5 5 7 7 7 6 7 7 8 8 7 8 8 9 8 8 8 9 10 11 12 11 11 11 11 11 11 10 10 11 10
9 10 10 10 9 9 7 6 7 8 9 8 9 9 8 8 9 8 10 8 8 7 7 7 8 7 6 7 6 6 5 5 4 4 3 4 5 5 5 4 4 5 5 5 4 4 5 4 6 6 5 4 3 2 3 2 3 3 4 4 4 4 5 5 5 5 5 5 7 8 8 7 7 7 8 8 7 8 8 9 8 8 10 10 11 11 11 11 11 10 10 10 9 10 10 9 10
8 11 9 10 9 9 7 8 8 7 6 6 9 11 10 10 10 10 8 7 7 8 7 8 8 7 6 6 5 4 4 4 4 3 3 4 4 5 6 6 4 5 5 5 4 4 4 4 5 6 5 4 3 2 2 3 3 3 4 4 4 5 5 4 5 5 5 6 6 8 8 7 7 7 8 8 8 9 8 9 8 9 11 11 11 11 11 11 10 9 10 9 10 10 9 9 9
8 11 10 10 10 8 6 8 7 6 7 5 9 9 9 6 4 6 6 7 7 7 7 7 7 7 6 5 4 4 3 3 3 3 3 3 4 6 5 5 6 5 4 5 5 5 4 3 4 5 5 4 3 3 3 3 3 4 4 4 4 5 5 4 4 5 5 6 7 8 8 8 7 7 8 9 8 8 8 9 9 10 11 11 11 11 11 10 10 9 9 9 9 9 9 9 8
11 11 11 10 9 8 8 7 7 5 6 4 7 8 5 5 4 7 8 7 7 7 6 7 6 6 6 5 4 3 3 3 3 2 4 5 6 6 7 6 5 4 5 6 6 6 5 5 5 5 4 4 3 3 2 3 3 3 4 4 5 5 4 4 5 5 5 6 7 8 8 8 8 7 8 9 9 8 8 10 11 11 11 11 10 11 11 10 10 10 10 9 7 7 7 7 7
11 10 11 10 8 8 6 6 5 3 7 3 2 5 6 6 8 8 7 6 6 5 6 6 6 5 6 5 3 3 3 2 1 2 4 3 4 4 5 6 7 5 4 5 6 5 5 4 4 4 4 3 3 3 3 3 3 3 4 4 5 4 5 4 5 5 5 6 6 8 8 8 8 8 8 9 9 8 10 11 11 11 11 10 10 12 12 10 9 9 8 9 8 8 7 7 6
7 6 9 10 9 8 6 3 3 5 7 3 1 4 6 7 8 7 6 6 6 6 5 5 5 5 5 4 3 2 3 2 1 2 3 3 3 4 5 5 6 6 5 5 6 6 4 3 3 3 4 3 3 4 3 3 4 3 4 4 5 4 4 4 4 4 5 5 6 8 9 9 8 8 8 9 8 10 10 10 11 11 11 11 10 10 10 9 8 9 8 8 8 7 8 8 7
5 5 5 3 5 7 5 2 3 5 7 6 1 1 6 8 7 7 7 7 6 6 5 5 4 4 4 4 3 3 3 2 2 2 3 3 3 4 5 5 6 6 5 5 6 6 5 4 3 2 3 4 3 4 4 4 4 4 4 5 4 5 4 4 4 5 5 6 6 7 9 8 9 9 9 8 10 10 9 10 11 11 11 11 10 10 10 10 9 9 9 9 8 8 9 8 8
3 5 5 3 4 6 6 3 3 2 6 5 6 2 6 8 9 8 8 7 7 6 6 5 4 4 4 3 3 2 3 4 4 4 3 3 2 4 4 5 5 6 6 5 5 4 5 5 4 4 4 4 3 3 3 3 4 4 4 4 4 4 4 4 4 5 6 6 7 7 9 8 8 8 9 9 10 10 9 9 10 11 12 10 9 9 9 10 10 9 9 8 8 9 8 9 7
3 1 5 6 5 7 7 6 5 1 1 3 3 4 4 7 7 9 8 8 7 5 5 5 5 4 4 3 3 2 3 4 4 4 4 2 3 3 3 4 5 5 5 5 5 4 4 4 4 4 4 4 3 3 3 3 3 4 4 4 4 4 4 4 5 5 6 6 7 7 8 7 8 8 9 10 10 9 9 10 9 12 11 10 10 9 9 9 10 9 9 8 8 8 9 10 10
5 2 6 3 5 4 5 6 5 5 3 1 3 3 5 6 7 8 8 8 7 6 5 5 5 4 4 3 3 2 1 2 2 4 5 2 4 3 3 3 3 3 4 5 4 4 4 4 4 4 4 3 3 3 3 3 3 4 4 4 4 4 4 4 4 5 6 6 7 7 8 7 7 8 9 11 10 10 9 10 11 12 11 10 10 10 9 10 10 10 10 10 9 9 9 10 10
5 5 5 6 5 4 6 2 7 5 3 3 1 3 1 5 5 7 8 8 7 6 4 4 5 4 4 3 3 2 1 1 2 4 5 4 4 4 3 3 3 3 3 5 4 4 4 3 3 3 3 3 2 2 1 1 0 1 3 3 2 2 3 4 5 5 6 6 7 7 7 6 7 8 9 10 10 9 9 10 11 12 11 10 11 11 10 11 11 10 11 10 9 9 9 10 10
5 5 6 4 4 5 6 7 5 5 4 4 3 0 2 3 5 6 7 8 8 6 5 4 5 4 4 4 3 2 1 2 4 5 6 4 4 4 3 3 3 3 3 4 4 4 4 3 3 3 3 3 1 2 2 3 2 3 4 2 3 3 4 4 5 5 5 7 8 7 7 6 8 8 9 10 10 8 9 11 12 12 11 11 12 12 12 11 12 13 12 10 11 10 9 9 11
5 3 4 7 7 7 6 4 4 3 4 1 1 1 2 3 4 6 8 8 8 7 7 6 5 5 5 4 3 3 3 1 6 6 6 5 5 4 3 2 3 3 4 4 4 4 4 4 4 4 3 3 4 4 4 5 5 3 2 3 2 3 4 3 4 5 5 6 8 7 7 6 7 8 9 9 9 8 9 10 11 12 12 12 12 12 13 13 12 12 12 10 12 10 10 11 12
2 4 2 4 2 7 4 4 3 3 5 4 1 2 2 2 3 5 7 8 9 9 8 7 7 6 5 4 3 2 3 4 6 6 6 7 6 6 4 3 3 2 4 4 4 4 4 3 4 3 3 3 4 4 3 3 4 4 4 4 3 4 3 4 5 5 5 6 7 6 6 7 7 8 8 8 8 9 10 10 11 12 12 11 11 12 14 13 14 12 12 11 10 9 8 12 12
2 1 3 3 6 6 6 3 2 3 4 2 1 3 1 3 3 4 6 7 6 7 7 7 7 6 5 5 4 3 4 5 6 6 7 6 7 7 5 3 3 3 3 4 4 3 3 3 3 3 3 3 3 4 4 4 3 4 4 3 3 3 3 4 4 4 5 6 6 6 6 7 7 7 8 8 7 9 11 10 11 11 12 12 12 12 13 13 11 13 14 13 12 10 9 10 13
1 0 2 6 4 4 5 5 4 4 4 4 4 4 3 3 4 4 5 6 6 6 7 7 6 6 6 4 4 4 5 5 7 7 8 7 7 6 5 4 4 3 2 3 3 3 2 3 3 3 3 3 3 4 4 2 3 2 2 2 2 4 3 2 2 4 5 6 6 6 6 7 7 7 9 8 7 8 10 10 10 11 13 13 13 13 13 13 12 12 12 13 13 12 11 11 12
4 4 3 3 3 5 6 5 4 3 5 4 6 5 5 3 4 5 7 6 6 6 7 7 7 7 5 4 5 5 4 5 5 8 8 8 8 8 6 5 4 3 3 3 3 2 2 3 2 2 3 3 3 4 4 3 2 1 0 2 2 2 1 2 3 4 5 6 5 6 6 6 7 7 8 9 8 8 8 9 10 11 11 12 12 12 12 12 12 11 12 11 13 11 12 10 11
4 6 5 6 1 2 3 3 4 5 5 1 6 2 7 5 3 3 6 5 7 6 8 8 8 8 7 7 7 5 5 4 5 7 8 9 9 8 7 7 5 4 4 3 2 3 2 2 2 2 2 3 3 4 4 4 4 4 3 2 2 2 3 4 5 6 5 6 6 5 5 6 7 7 7 8 8 8 8 9 10 11 11 12 12 12 12 11 12 12 11 11 13 13 11 12 12
3 6 3 1 2 1 1 2 5 2 3 5 3 5 7 4 6 5 3 4 5 7 8 8 8 7 7 7 6 6 6 6 6 6 7 9 9 9 8 7 6 5 4 4 3 3 3 3 2 2 2 2 2 3 4 2 3 3 3 4 3 3 3 3 3 4 4 5 5 4 4 5 6 6 7 7 8 8 8 8 9 10 11 10 11 11 12 12 12 12 10 10 11 11 12 12 13
7 3 2 1 1 1 1 0 2 4 1 3 2 4 2 6 7 4 3 2 3 5 7 7 6 7 7 6 6 6 6 6 6 8 8 8 9 9 9 8 6 6 5 4 3 3 3 2 2 2 2 3 3 3 3 4 3 3 3 3 3 3 4 3 3 3 3 4 4 5 3 4 6 6 6 7 8 8 8 8 9 9 10 11 10 10 11 12 11 11 11 10 10 10 11 10 10
6 2 3 1 1 1 1 2 1 3 4 6 3 2 3 5 7 4 2 4 4 4 4 6 7 7 7 8 7 7 7 7 7 8 9 9 9 9 8 8 7 8 6 4 4 3 3 3 2 2 3 2 3 3 3 4 3 3 3 3 3 2 2 2 2 3 3 3 5 5 4 4 5 6 6 7 7 8 8 8 8 9 10 10 9 9 10 11 11 12 12 11 10 10 10 10 9
5 2 2 0 1 2 3 1 2 1 2 7 6 7 4 7 3 6 5 0 4 4 2 4 6 7 7 8 7 7 7 7 8 8 8 8 8 9 8 8 8 7 6 5 4 3 3 3 2 2 2 2 3 3 2 3 3 3 4 4 3 3 3 3 3 3 4 4 4 5 4 4 4 4 5 7 7 8 8 9 8 8 9 9 8 9 9 9 9 10 11 10 10 10 8 8 8
5 4 4 4 3 3 3 2 0 3 4 7 6 6 8 3 7 5 4 7 5 3 4 4 2 4 7 7 8 8 8 8 8 8 8 8 9 9 9 9 9 8 6 6 4 3 3 3 2 2 2 2 3 3 3 3 3 4 4 4 4 4 4 4 4 4 4 4 4 5 4 4 4 4 4 5 7 8 8 8 8 8 7 7 8 8 8 8 8 8 8 10 10 10 8 9 9
4 1 3 3 4 4 5 3 4 2 6 7 5 4 4 2 8 6 5 3 2 2 2 3 4 6 6 8 8 9 9 8 9 9 9 10 10 9 10 10 9 9 7 6 5 4 3 3 3 3 3 2 2 2 3 3 3 3 3 3 4 5 5 4 5 5 5 6 5 5 4 4 3 4 4 5 6 8 7 8 8 8 7 7 7 7 7 8 7 7 7 7 8 10 10 10 10
5 4 3 3 4 2 3 4 4 7 7 5 3 1 4 5 7 7 5 5 4 3 3 2 3 6 7 8 9 9 9 9 9 9 9 10 10 11 11 10 10 9 7 7 6 4 4 3 3 2 3 2 2 2 3 3 4 4 3 3 3 4 5 6 5 5 5 5 5 5 4 4 4 4 5 5 6 8 7 7 8 7 7 7 7 7 6 7 7 7 8 9 9 10 9 10 9
3 6 5 6 4 5 5 6 4 6 7 4 1 1 1 3 9 8 7 6 4 2 1 0 2 5 7 8 9 9 9 10 9 9 10 10 10 10 11 10 10 8 8 8 7 5 4 4 3 3 3 2 2 2 2 3 4 4 3 3 3 3 4 4 5 5 5 4 4 5 4 4 4 5 5 5 6 7 6 6 7 7 7 7 8 7 7 7 7 6 6 7 8 7 8 9 9
7 4 5 5 7 5 4 5 5 6 7 6 2 3 8 9 7 8 7 6 3 3 1 2 4 6 6 8 9 10 10 10 9 10 10 10 10 11 10 10 9 9 9 8 7 5 5 4 4 4 4 3 2 2 2 2 3 3 4 3 3 3 3 4 5 4 5 5 4 4 5 4 4 4 5 5 6 6 6 6 7 6 7 7 7 7 7 6 7 6 6 6 6 7 8 9 9
3 1 4 3 7 5 6 6 5 4 2 4 4 5 4 8 3 6 4 3 5 2 4 5 7 7 8 8 9 9 10 10 10 9 9 10 10 11 10 10 9 9 10 8 7 6 5 4 4 4 3 3 3 2 2 2 3 3 3 3 3 3 3 3 4 4 4 4 5 4 4 5 4 4 4 5 5 5 6 6 6 6 7 6 7 7 7 6 7 6 6 7 8 7 8 11 10
4 5 6 6 2 4 1 3 0 2 3 6 1 5 1 8 6 11 8 6 6 5 5 6 7 8 8 8 9 10 10 10 9 9 9 10 10 10 10 10 10 10 9 9 8 7 6 5 5 5 4 4 3 2 2 2 2 3 3 3 3 3 4 5 4 4 4 4 4 4 4 4 5 4 4 4 5 5 5 6 6 6 6 6 7 7 7 6 6 6 6 8 9 9 9 9 10
7 4 5 3 4 5 4 3 1 1 4 2 4 6 10 4 7 6 3 8 6 7 6 5 6 8 9 8 8 9 9 10 10 9 8 9 10 11 10 10 10 10 10 10 9 7 6 5 5 5 4 4 4 3 2 2 2 2 3 3 3 3 3 4 4 5 4 4 4 4 4 4 5 4 4 4 4 4 4 5 5 5 6 6 6 6 7 7 6 6 7 7 8 9 10 10 10
6 6 2 6 1 1 5 1 4 3 3 2 6 4 8 10 8 8 10 9 6 6 4 6 7 7 9 8 9 8 8 8 9 9 9 9 10 11 10 11 11 11 10 10 10 8 7 6 6 5 5 4 4 3 3 2 2 2 2 2 2 2 3 3 4 4 4 4 5 5 5 5 5 4 5 5 4 4 4 4 4 5 5 6 6 6 6 6 6 6 6 7 8 9 10 10 10
1 2 3 2 4 5 4 5 2 5 3 3 5 6 6 9 9 9 10 9 6 5 3 5 4 5 6 9 9 9 9 8 9 9 9 9 10 11 11 12 12 12 11 10 10 8 8 7 6 5 5 5 4 4 2 2 3 2 2 2 2 2 3 4 4 4 4 5 5 5 5 5 5 5 5 5 5 5 5 5 4 5 5 5 6 6 6 6 6 6 6 7 8 10 10 10 10
4 3 1 2 2 2 2 1 5 5 3 3 3 4 3 8 8 9 9 8 6 4 4 3 2 3 4 5 8 8 9 8 9 9 9 10 10 11 11 11 11 11 10 10 9 9 8 7 7 7 6 6 5 4 3 3 2 3 2 3 2 2 2 3 4 4 4 5 5 5 5 4 4 5 6 5 6 5 5 5 5 5 5 5 6 6 6 6 6 6 6 7 8 9 10 9 10
4 2 2 4 3 2 3 2 2 4 4 4 3 4 2 8 4 7 8 6 5 5 3 1 2 4 2 4 6 7 7 8 8 8 8 10 10 11 11 11 10 11 11 11 9 8 8 7 7 7 6 5 6 5 4 3 2 2 2 2 2 2 2 3 3 4 4 4 5 5 4 4 4 5 5 6 6 5 5 5 5 5 5 6 6 6 6 6 6 6 6 6 7 9 9 10 9
Wind_Direction
173 205 204 217 228 240 246 201 260 160 269 297 297 316 23 300 342 298 315 345 277 66 24 358 341 290 290 54 161 123 162 237 76 247 88 84 151 68 63 80 83 91 79 75 67 62 74 52 30 34 43 48 55 63 65 63 58 53 53 55 55 59 55 50 44 37 33 30 25 20 13 4 355 351 350 345 336 335 342 333 332 324 327 328 332 330 329 324 322 318 327 327 325 325 326 325 329
189 192 209 212 231 249 215 281 270 247 221 263 249 293 44 319 283 353 343 333 6 60 9 358 28 46 75 214 125 132 68 58 72 92 105 92 105 68 26 53 67 71 71 72 59 57 60 57 37 36 47 55 65 65 66 61 57 58 61 60 64 62 53 48 41 38 32 30 24 17 10 4 353 345 340 344 339 334 322 334 330 331 330 329 323 319 316 316 311 308 312 320 319 315 324 321 320
172 214 208 213 235 250 305 228 278 304 313 296 360 354 47 324 334 357 1 1 43 50 87 73 10 39 102 346 160 360 128 87 88 95 82 55 126 24 3 39 69 74 68 66 64 51 55 53 47 46 49 67 67 67 64 62 60 60 60 63 67 57 48 43 40 34 33 27 19 13 8 359 351 344 338 335 336 349 338 335 331 325 314 316 312 309 311 311 340 339 314 305 343 332 316 332 321
197 262 292 289 268 200 263 254 273 299 281 338 331 139 4 341 348 6 36 22 33 113 132 110 342 26 281 119 104 93 75 78 31 81 90 42 28 309 332 47 86 86 81 75 83 65 50 55 50 52 52 67 69 68 66 65 63 59 59 72 69 54 46 39 36 34 30 22 16 12 7 359 352 354 344 347 332 357 351 347 346 347 335 320 317 312 342 350 328 347 2 360 350 350 346 334 338
231 208 274 281 287 267 294 310 307 312 316 325 319 33 6 343 356 11 50 52 74 104 162 125 91 12 326 43 78 89 75 82 58 47 104 93 87 72 20 75 94 88 73 65 50 61 52 48 56 53 60 65 67 64 65 62 54 47 48 59 65 56 44 41 37 37 31 22 16 11 7 2 357 355 0 350 8 356 358 353 353 355 356 12 17 13 352 352 345 356 346 350 347 348 344 341 340
224 244 207 261 281 15 256 259 283 326 28 340 319 18 24 359 10 34 72 91 125 133 103 71 144 185 72 45 357 81 312 96 104 58 55 57 71 98 95 71 65 59 54 64 71 44 48 49 51 57 55 62 62 57 52 55 54 51 61 65 63 53 51 46 44 37 28 22 16 10 7 0 354 354 354 353 353 358 357 359 354 360 4 358 5 6 359 352 358 356 352 339 330 333 337 340 336
262 251 202 228 218 239 286 311 322 322 70 353 21 3 340 35 20 329 125 97 96 99 124 122 137 130 136 152 93 81 74 78 90 69 50 79 83 71 74 67 68 60 51 46 50 63 50 52 57 60 62 54 57 66 69 76 72 70 68 65 61 55 48 46 46 35 28 22 16 11 6 360 349 344 345 344 347 351 355 357 352 356 357 1 2 353 356 350 351 351 347 345 337 328 321 328 329
271 275 345 276 295 259 290 304 36 335 62 38 43 358 5 26 34 11 50 108 65 52 92 103 90 92 80 130 98 78 78 71 90 82 65 59 68 68 60 65 64 54 51 52 54 58 61 53 64 73 71 75 68 72 78 78 87 75 66 64 57 53 48 48 43 35 27 20 15 10 4 356 351 341 337 337 341 342 344 349 351 353 354 346 352 350 347 344 345 346 342 340 337 337 334 325 314
223 256 206 270 275 253 284 353 51 60 75 56 63 54 21 36 36 70 53 68 107 97 104 135 119 76 70 75 67 82 78 80 70 70 74 73 71 69 61 56 60 62 56 53 54 59 60 56 53 71 81 80 80 76 77 86 79 69 66 62 59 56 53 48 41 33 25 17 11 5 359 354 349 343 341 338 338 342 341 348 352 351 353 358 351 343 345 342 342 341 340 332 331 328 327 322 320
231 253 267 280 323 300 325 109 305 39 54 66 49 39 28 42 66 35 78 119 126 92 72 124 122 104 88 69 89 51 68 84 88 70 61 68 68 69 67 60 59 64 56 54 52 61 64 64 51 47 52 80 79 79 78 77 73 71 69 64 63 58 53 44 36 30 22 14 7 3 360 356 354 356 355 348 342 346 354 351 354 351 351 350 350 347 338 341 338 334 332 328 324 325 319 318 313
250 203 301 286 286 310 329 40 71 128 91 110 82 60 40 72 66 82 78 74 91 93 78 38 74 84 82 75 59 93 88 95 89 87 84 77 74 68 70 60 56 51 59 52 52 50 69 74 66 50 50 54 70 74 76 75 75 77 72 69 63 58 49 41 36 29 22 12 7 5 1 360 0 4 357 357 356 5 2 358 357 352 348 345 344 343 340 336 332 330 327 326 325 322 319 316 313
265 237 211 292 314 321 13 18 77 97 109 135 87 54 49 38 84 60 39 66 85 71 55 294 116 113 77 88 81 80 83 87 90 91 88 90 78 71 66 66 56 54 51 50 52 52 51 73 75 66 53 54 61 67 73 77 80 77 73 67 60 54 49 42 35 28 18 13 10 6 4 5 4 4 4 3 2 1 8 1 357 352 348 344 341 340 341 340 338 334 331 330 328 324 321 317 315
273 280 293 285 343 282 45 205 88 109 147 78 64 66 39 60 65 85 87 68 41 69 65 47 23 81 93 75 96 86 79 79 90 95 96 86 85 80 75 71 63 57 50 47 47 47 46 56 65 61 60 74 66 64 72 78 79 77 73 66 61 55 48 41 34 22 19 16 12 7 8 7 5 5 5 5 358 352 358 353 357 352 348 344 342 345 346 342 340 337 332 330 327 322 321 319 317
276 332 305 301 269 266 290 65 129 189 67 89 80 87 55 75 65 33 81 71 49 57 54 37 61 81 93 108 73 89 90 104 101 98 95 88 89 84 76 70 64 57 53 46 44 40 45 50 64 59 60 65 81 91 76 74 77 75 71 66 60 53 48 41 29 25 22 18 14 10 11 9 5 5 1 2 356 352 351 346 357 351 350 350 345 342 344 341 337 334 331 327 325 320 317 315 314
279 279 272 282 182 214 75 268 94 96 120 99 83 107 109 75 83 56 32 95 76 43 12 28 118 264 91 107 110 104 122 118 112 113 110 110 102 94 88 81 72 58 50 47 45 42 41 51 56 68 63 56 67 48 61 73 72 73 70 63 58 52 45 35 31 24 23 18 12 11 9 7 3 10 360 0 359 353 356 343 3 354 352 351 346 340 337 336 331 328 327 325 321 320 313 314 309
277 251 254 238 72 294 105 128 118 135 94 97 100 109 92 88 18 81 54 57 86 49 47 74 34 70 79 89 105 128 133 137 127 120 116 123 126 121 109 94 73 60 53 41 47 43 47 49 48 65 56 59 60 63 68 71 73 71 66 64 57 48 39 32 24 21 12 19 7 10 4 357 3 7 4 351 357 350 3 356 357 353 349 345 340 332 331 329 329 327 326 327 326 323 321 306 298
255 262 243 202 110 248 93 70 247 61 105 108 129 147 106 91 87 87 81 89 87 75 72 51 59 61 79 96 117 122 135 127 134 162 174 160 212 83 64 43 55 76 80 63 37 43 45 51 50 60 59 61 63 69 68 70 71 82 86 73 64 50 32 26 16 12 7 13 5 12 357 5 359 5 360 354 339 357 2 356 352 347 342 337 331 328 323 323 324 328 330 329 328 320 304 288 270
242 234 236 89 91 72 54 46 56 125 114 121 137 137 119 128 129 102 105 89 89 88 85 84 73 71 77 88 86 89 116 138 135 91 35 20 10 9 19 52 26 28 25 58 51 31 38 54 57 43 69 58 59 62 67 71 86 65 47 38 32 19 29 12 18 8 13 3 8 4 8 3 352 1 359 351 336 348 353 350 341 332 329 324 320 322 316 320 321 332 326 326 327 311 295 295 329
267 148 7 89 50 67 43 65 75 99 105 117 123 136 115 113 130 141 111 105 100 95 88 91 91 89 93 99 114 129 143 129 128 57 46 32 22 28 17 37 40 27 31 37 58 31 19 52 36 53 42 41 89 96 71 58 51 29 45 30 28 23 16 15 19 15 11 5 7 358 7 1 348 346 4 342 316 315 314 323 321 318 316 316 321 321 332 326 332 297 326 329 317 316 326 329 326
45 320 107 81 71 84 66 74 75 76 115 123 125 123 126 110 127 147 125 120 111 102 112 110 103 104 103 114 118 123 117 108 86 68 48 35 30 31 35 35 32 36 34 35 46 42 31 26 48 45 39 31 19 35 29 54 39 30 25 20 10 10 14 11 21 17 13 5 360 358 6 359 346 349 353 325 310 344 336 329 329 315 329 324 343 319 336 340 323 322 329 326 325 338 331 328 331
61 160 92 104 108 99 77 86 91 98 108 114 116 119 113 113 111 138 121 109 95 92 82 107 121 118 122 123 122 120 110 102 91 68 45 41 40 39 43 33 27 24 28 37 57 48 38 31 26 57 36 29 12 44 63 38 30 32 23 16 12 9 9 11 12 16 23 7 359 1 356 355 341 357 356 350 343 344 341 337 338 345 338 335 345 335 336 338 333 334 337 335 337 334 333 336 331
78 67 84 93 100 92 91 85 85 92 102 117 124 125 101 113 115 109 121 102 101 102 104 108 109 116 124 128 123 118 109 97 85 63 52 44 36 40 36 45 50 41 32 40 31 46 38 39 24 15 55 33 17 35 32 87 26 22 22 14 7 10 12 8 11 14 19 10 359 358 346 348 348 357 355 351 347 341 341 342 340 342 338 337 346 337 339 338 337 337 336 337 341 338 341 339 333
94 87 83 85 85 98 99 96 93 122 118 107 107 101 119 106 86 76 91 91 98 107 119 108 106 109 110 111 116 113 98 85 71 59 51 46 42 42 42 28 23 26 33 36 29 36 35 29 27 15 23 35 44 17 35 35 32 27 22 24 0 14 7 6 14 12 10 8 360 0 351 352 355 357 354 349 347 344 343 342 343 340 341 341 346 338 340 339 337 339 341 339 339 341 340 336 337
94 96 94 89 95 95 94 92 112 101 98 95 102 127 114 120 98 100 90 92 104 106 105 107 108 112 118 113 105 98 91 87 77 69 61 59 48 40 39 40 30 28 34 22 35 24 36 24 20 15 33 10 37 49 41 46 43 25 22 14 16 10 0 9 10 11 354 13 11 2 0 355 354 357 353 347 346 347 343 346 340 345 342 342 345 341 339 342 340 342 342 338 340 340 338 338 341
102 99 93 94 93 93 94 99 100 99 98 110 120 112 101 99 108 124 100 110 118 119 119 120 119 118 116 118 118 116 112 109 100 89 74 66 66 53 43 49 40 31 34 23 22 25 36 24 14 20 17 31 32 25 53 37 35 27 14 14 23 2 12 13 3 6 8 10 20 2 4 1 354 355 352 346 342 348 343 346 344 347 345 346 345 346 345 341 346 343 344 340 338 339 340 341 339
88 98 103 102 97 96 97 102 102 102 104 118 117 100 104 108 120 97 115 117 119 128 134 133 133 129 126 126 132 125 112 102 108 94 75 82 64 52 44 37 38 43 29 23 15 33 28 14 27 21 19 34 53 43 33 34 20 14 16 23 16 6 15 13 3 16 15 13 17 4 2 4 353 356 351 344 344 344 347 346 344 350 349 349 348 348 346 346 343 345 348 342 341 342 342 341 342
108 104 98 100 100 102 97 100 100 98 95 109 113 118 118 125 234 115 132 132 134 142 139 146 142 132 134 141 134 134 120 106 89 86 86 68 73 48 44 45 35 42 35 26 24 21 24 12 33 27 38 36 41 38 38 37 25 20 8 14 16 16 5 3 19 19 16 21 12 5 2 6 352 356 351 342 345 341 348 349 350 353 351 351 349 350 348 348 342 350 343 342 348 344 339 347 351
106 106 105 99 102 97 107 104 103 118 100 129 117 120 147 132 214 112 140 148 159 148 150 153 150 137 141 145 158 134 142 129 129 118 59 44 38 44 37 31 33 36 42 30 25 15 24 9 26 20 38 38 27 38 37 31 20 20 11 14 13 13 6 9 16 23 15 19 13 6 4 4 352 356 349 343 344 340 350 353 354 353 352 351 350 348 349 348 344 344 345 342 346 336 342 356 345
121 125 110 110 113 105 97 97 108 134 111 131 3 154 137 146 117 126 136 156 170 164 157 161 158 141 135 150 159 166 135 139 105 74 59 59 64 54 50 34 20 21 56 46 23 20 22 20 16 20 26 34 29 23 22 26 19 8 16 13 14 4 11 14 20 21 15 12 18 12 2 5 357 357 350 346 338 345 355 355 355 354 356 350 348 350 347 348 349 344 346 341 351 350 349 355 354
135 137 120 130 127 101 94 115 124 152 121 197 340 165 103 119 126 142 146 160 179 181 174 162 160 154 150 149 156 134 129 161 150 68 82 79 75 61 54 39 30 19 29 35 24 27 23 27 16 20 19 38 14 26 7 21 10 16 12 11 16 356 19 19 21 18 15 13 14 20 4 5 359 359 350 344 343 353 357 358 353 4 352 351 352 354 348 347 351 347 349 347 353 348 352 360 357
123 125 231 128 144 89 113 167 152 162 141 229 90 286 128 127 157 160 159 174 187 183 170 164 166 164 157 155 162 146 156 180 122 106 99 82 74 71 62 43 34 32 27 29 28 24 37 31 15 35 28 33 31 33 30 23 15 10 12 12 20 358 25 29 22 14 18 21 10 19 8 3 360 356 351 345 354 357 359 358 4 1 355 355 355 351 348 351 356 350 353 348 351 360 351 359 355
148 213 119 118 100 114 120 138 192 151 162 231 309 172 98 138 155 178 169 180 191 200 169 174 176 179 166 159 155 181 131 157 156 149 128 122 78 78 60 51 36 33 31 23 32 37 43 34 21 38 40 43 45 44 31 19 17 16 17 20 20 13 25 28 26 22 19 20 15 14 9 4 357 356 350 356 2 0 3 1 4 3 358 2 358 354 354 355 352 348 352 354 357 354 351 354 352
173 132 87 78 95 114 142 145 173 251 77 208 282 39 132 136 148 169 178 185 196 197 186 180 185 193 197 178 161 169 132 172 182 155 141 155 110 75 86 60 40 39 34 27 26 42 45 44 39 41 44 45 42 44 33 29 10 25 24 33 24 32 26 23 28 23 26 23 11 12 8 4 358 356 355 5 6 1 7 7 6 3 4 2 358 355 2 358 355 350 354 2 359 345 352 353 358
91 86 94 79 83 142 110 126 195 167 264 200 172 289 81 82 151 167 181 197 201 213 198 189 195 197 194 195 180 166 180 139 160 164 148 158 111 103 83 73 62 50 46 34 38 37 41 41 44 33 45 38 24 15 11 359 23 10 29 39 33 36 34 24 25 24 27 20 12 13 8 3 1 357 2 12 13 8 13 12 14 8 6 6 6 3 0 358 356 3 354 348 7 350 360 354 357
84 97 114 115 107 54 90 162 128 206 179 269 129 270 128 138 161 175 184 198 214 216 211 202 199 195 199 205 184 172 186 156 131 153 148 141 134 138 124 113 87 63 47 45 43 43 43 43 47 51 35 30 23 11 2 342 289 55 58 28 44 47 51 42 21 30 24 17 15 15 12 5 3 0 7 19 15 10 17 20 20 13 12 13 10 10 4 3 356 2 4 351 349 1 1 358 359
65 38 80 102 96 99 82 94 128 209 166 219 176 348 114 162 168 186 191 198 216 220 219 213 211 204 203 209 199 175 169 148 105 140 150 160 145 131 130 124 101 72 58 54 53 51 47 45 44 54 23 353 308 281 320 337 14 26 15 35 52 34 38 38 32 25 23 21 13 18 16 9 6 4 10 22 18 12 21 24 23 22 21 18 17 16 12 11 1 357 4 359 354 3 9 8 3
77 97 77 69 95 96 114 106 111 180 249 134 5 356 210 194 183 183 195 192 210 223 222 216 214 212 211 203 193 173 147 137 126 156 163 154 148 150 145 125 111 102 70 54 58 60 46 35 42 36 25 8 359 2 17 6 2 11 33 28 33 47 32 37 43 29 20 26 15 20 17 13 6 9 11 24 18 13 25 27 26 25 25 22 19 15 15 12 12 9 360 2 4 6 11 15 9
78 86 68 98 42 84 65 88 143 155 264 107 123 265 204 188 161 183 184 199 211 217 217 218 218 208 217 212 204 167 128 117 141 164 171 164 167 156 160 150 140 107 69 58 60 60 54 49 39 35 28 31 29 15 5 19 10 8 354 16 16 30 32 28 29 32 22 27 23 24 18 13 9 14 14 23 18 19 29 29 27 25 24 23 21 20 18 18 16 12 6 4 358 14 21 21 18
214 355 88 75 77 94 115 126 172 157 247 78 55 304 107 138 170 167 194 204 212 218 220 218 216 216 215 209 197 176 161 159 176 180 179 174 170 168 165 153 126 98 91 68 69 69 66 55 46 37 32 15 37 19 5 23 19 21 2 10 351 81 56 20 29 29 26 26 36 26 24 16 12 19 18 25 24 21 29 28 27 24 27 27 27 23 22 23 18 13 15 14 360 4 27 27 24
276 197 233 64 51 277 126 112 170 176 265 349 333 297 88 118 144 180 196 205 210 210 215 222 219 221 229 216 200 195 182 180 178 186 183 177 176 172 170 162 143 128 119 93 69 78 73 57 44 33 44 32 27 28 10 21 28 18 25 11 33 15 25 55 54 48 32 28 40 31 29 20 15 19 22 22 27 24 28 28 29 27 27 26 27 26 24 24 22 19 16 18 15 6 15 22 23
58 3 8 87 113 77 356 95 171 187 212 258 283 244 128 103 159 177 172 194 218 207 214 224 223 225 223 222 229 202 200 182 183 180 184 180 181 182 179 159 149 146 107 79 70 66 86 72 58 37 49 38 36 31 18 358 3 18 60 166 170 151 90 37 32 34 27 28 36 33 31 20 20 21 22 24 21 22 22 27 25 28 27 27 27 29 29 28 26 24 21 19 23 13 18 15 23
107 74 13 9 353 94 121 141 200 202 155 167 18 230 91 114 108 69 114 182 210 211 221 219 214 213 207 214 213 209 206 190 192 185 188 184 183 178 171 159 168 142 127 101 92 87 89 92 81 59 62 42 37 41 24 19 25 18 8 22 49 49 48 33 32 17 12 21 28 40 35 22 26 23 22 25 22 15 17 20 24 27 31 31 31 32 31 30 30 26 24 23 26 26 17 27 28
60 61 348 336 296 187 139 158 251 61 42 54 298 313 107 116 100 110 144 187 191 187 214 218 210 204 206 211 201 195 203 187 186 187 190 182 182 176 169 169 166 152 128 124 109 99 97 91 83 57 48 64 52 41 15 15 30 32 28 36 36 34 44 55 23 19 8 18 31 38 39 33 28 29 21 22 22 16 16 17 24 24 32 32 32 32 32 33 33 30 25 28 30 31 31 37 35
59 60 13 333 97 174 147 358 5 73 99 129 290 335 12 117 97 127 150 197 179 186 191 210 208 201 197 198 197 177 191 182 182 189 192 186 182 177 173 167 169 148 137 131 112 113 107 92 89 61 56 52 43 18 44 17 24 30 34 33 33 38 42 38 25 27 29 20 32 38 33 53 37 28 24 23 15 18 12 14 22 27 26 33 32 35 33 34 33 33 34 37 40 40 38 32 31
46 88 299 16 44 30 17 274 40 58 276 89 81 7 272 76 113 142 194 204 146 166 177 183 186 194 183 193 191 172 180 176 183 180 190 188 181 175 169 166 153 140 146 135 122 105 112 115 102 82 66 55 52 36 27 37 25 22 16 26 36 45 32 23 28 31 33 29 37 49 35 39 47 30 25 19 13 14 11 12 14 20 27 29 29 36 34 35 37 38 41 43 42 40 36 35 31
107 125 208 142 142 165 233 130 206 115 261 73 30 354 335 87 105 141 133 91 123 117 126 143 160 177 177 180 179 171 169 173 183 182 184 179 171 169 163 151 146 146 142 130 119 122 124 129 107 87 70 60 54 53 50 39 27 22 38 33 28 35 31 38 23 31 42 17 48 51 52 39 34 36 26 18 9 10 11 10 9 15 21 24 26 32 35 37 34 36 37 38 31 29 32 33 32
115 183 169 163 174 174 177 230 229 207 74 64 31 5 23 59 55 45 8 42 15 5 113 107 114 161 168 164 171 167 172 176 179 178 172 166 162 161 155 153 150 144 140 140 135 134 136 126 121 92 64 60 59 53 45 40 37 24 36 31 24 34 42 37 24 31 39 44 36 51 52 45 33 30 18 21 8 8 9 8 4 9 15 14 21 27 28 33 31 30 24 21 25 24 20 21 22
208 188 265 51 239 167 203 171 215 69 75 54 23 347 62 343 71 56 54 125 98 343 35 102 144 150 169 167 174 167 167 172 174 170 165 157 155 159 159 158 155 150 148 148 150 144 136 120 119 108 91 59 66 67 52 37 35 48 48 36 32 20 21 32 32 24 21 30 36 43 50 51 35 34 24 18 14 5 6 3 3 5 12 8 10 16 24 23 28 26 26 15 15 16 14 12 15
243 247 265 254 81 85 75 83 72 43 42 44 20 310 251 49 48 31 24 30 63 48 353 64 164 139 150 172 173 172 168 172 174 170 162 163 167 167 170 163 158 157 157 157 152 148 127 127 130 119 90 71 61 52 61 49 42 32 25 38 39 29 24 20 22 32 23 29 27 43 38 48 31 28 22 12 13 5 5 3 2 4 4 7 5 8 14 20 18 25 24 18 14 15 10 9 11
352 22 350 33 28 47 39 62 54 95 93 75 275 329 319 126 70 21 32 34 28 8 350 310 145 147 157 156 163 167 173 177 177 168 172 174 175 172 170 165 164 160 160 161 156 151 142 135 141 121 102 78 57 64 60 66 52 36 34 22 20 31 34 26 23 25 27 26 30 39 44 28 38 18 19 15 3 359 4 359 355 359 1 1 3 6 9 18 17 16 16 12 9 12 11 8 16
41 340 346 32 38 355 48 23 52 47 53 72 178 240 36 23 25 31 31 22 20 34 33 116 160 148 153 158 162 163 173 177 175 177 181 178 175 169 167 166 163 162 160 159 159 153 144 152 148 135 127 112 85 70 84 63 58 46 30 30 17 18 31 32 30 27 23 21 26 45 37 34 26 26 13 11 2 356 356 353 352 356 0 360 2 5 7 19 24 25 31 23 25 19 20 17 20
57 348 275 23 43 335 40 38 20 37 81 96 27 47 42 63 12 59 63 77 84 75 91 137 154 154 153 158 164 169 176 179 183 182 180 176 167 166 163 164 162 159 159 158 159 154 155 155 148 136 118 111 103 91 75 61 60 54 41 42 39 33 28 26 35 28 32 19 29 28 46 39 28 20 17 5 4 355 352 346 349 356 356 1 3 5 10 16 18 22 27 31 33 27 26 22 20
44 241 39 44 330 306 88 230 317 322 263 64 302 56 255 168 99 45 18 84 87 103 103 137 148 152 161 166 169 179 182 182 186 179 181 168 164 166 164 162 161 157 160 160 159 158 156 156 152 142 128 120 114 103 84 78 71 63 51 43 35 45 43 31 26 30 29 33 30 34 42 38 31 18 7 7 351 357 348 346 346 351 357 0 3 7 11 15 16 25 25 27 30 23 30 27 25
286 25 58 67 310 311 329 27 154 155 48 69 11 41 51 7 60 99 342 48 34 70 95 96 143 158 176 170 178 181 183 182 182 176 171 168 165 165 163 165 163 161 160 156 156 155 155 159 154 144 140 134 127 130 111 87 80 70 64 54 53 39 36 39 22 18 24 33 43 39 34 33 26 5 5 358 346 349 344 343 347 350 354 360 3 5 7 13 13 23 24 30 23 23 29 30 26
340 34 60 271 77 174 77 286 36 25 34 26 24 85 45 20 42 13 27 29 36 48 76 132 155 169 182 177 179 179 174 168 175 174 169 169 169 168 167 165 161 156 156 156 153 158 154 157 153 147 138 131 133 130 132 121 95 61 55 56 49 51 44 35 27 20 22 29 36 41 41 36 26 7 11 4 352 354 349 348 348 352 355 360 3 5 3 14 13 19 20 25 19 21 27 27 29
76 215 185 70 269 18 343 44 334 356 32 9 9 4 54 38 30 10 20 18 21 23 16 52 89 153 175 182 183 179 176 175 179 177 175 172 169 169 164 164 162 158 159 155 155 158 154 156 155 147 137 135 138 131 134 120 95 88 76 71 47 44 38 34 29 19 33 32 28 36 36 41 22 13 12 8 2 0 358 350 359 353 1 5 7 9 5 9 16 19 19 19 17 19 25 23 27
162 215 57 153 37 25 318 170 3 9 6 9 351 1 40 61 27 16 12 15 1 15 16 19 99 131 164 172 180 186 177 178 184 178 175 169 164 163 160 165 161 159 154 154 157 157 158 161 162 148 150 146 144 134 139 105 102 80 68 55 74 73 44 48 28 30 30 39 33 27 33 28 30 18 11 10 11 8 3 357 360 7 5 11 10 16 9 3 11 17 19 16 17 18 19 21 18
324 342 8 354 321 247 311 69 194 345 338 5 334 350 36 70 43 15 2 4 357 359 23 328 10 91 173 155 180 187 179 177 182 175 170 162 159 161 160 165 161 161 158 160 156 160 161 167 159 151 158 156 142 149 139 128 112 93 73 91 88 79 54 37 36 32 30 42 34 30 24 37 30 22 14 10 14 12 3 8 11 12 17 17 14 20 13 8 9 5 14 11 10 13 17 19 16